Location: Unspecified
(49.2170°N, 0.0000°E)
Time: 05:38:49
(UTC+00:00)

Courier 1B Rocket - Pass Details

Date: 22 January 2021
Orbit: 920 x 1202 km, 28.3° (Epoch: 05 March)

Event Time Altitude Azimuth Distance (km) Brightness Sun altitude
Rises 07:44:15 0° 213° (SSW) 3,805 8.1 -0.7°
Reaches altitude 10° 07:49:50 10° 177° (S) 2,939 8.0 0.1°
Maximum altitude 07:51:15 11° 165° (SSE) 2,913 8.3 0.3°
Drops below altitude 10° 07:52:41 10° 154° (SSE) 2,980 8.6 0.5°
Sets 07:58:34 0° 119° (ESE) 4,016 11.7 1.3°
